User: anonymous   Login
Location: Dumpton Point
(51.3500°N, 1.4433°E)
Time: 10:29:58
(UTC+00:00)
Language:

Transit 2A - Orbit

View from above orbital plane
View from above orbital plane
View from above satellite
View from above satellite

Ground track
Ground track

The orbit data is extracted from the following two-line orbital elements,

1 00045U 60007A   22272.45980539  .00000120  00000-0  57307-4 0  9999
2 00045  66.6964 342.8286 0247825  67.9054 294.8158 14.33908684185399
Epoch (UTC): 29 September 2022 11:02:07
Eccentricity: 0.0247825
inclination: 66.6964°
perigee height: 601 km
apogee height: 956 km
right ascension of ascending node: 342.8286°
argument of perigee: 67.9054°
revolutions per day: 14.33908684
mean anomaly at epoch: 294.8158°
orbit number at epoch: 18539

The dashed part of the orbit path shows where the satellite is in the earth's shadow,  

DLR